Theta_e
296 296 296 296 296 296 296 297 297 298 299 300 302 303 304 305 307 307 308 310 311 312 312 313 314 314 314 314 314 313 314 314 314 314 314 315 315 315 315 316 316 317 318 318 318 319 320 320 320 320 321 321 321 321 320 320 319 317 315 313 311 309 306 303 300 298 297 297 296 296 296 296 296 296 296 295 295 295 295 295 295 297 297 297 298
296 295 295 295 295 296 296 296 296 297 297 298 299 301 302 304 304 305 306 307 308 308 309 310 310 310 310 310 311 310 310 310 310 310 310 310 310 310 310 311 312 313 313 313 313 314 315 316 316 317 317 317 317 317 317 317 317 316 313 311 309 307 305 303 300 298 297 296 296 295 296 296 296 296 296 296 296 296 295 295 295 295 296 296 296
296 295 294 295 295 295 295 295 295 295 296 297 298 300 301 302 303 304 305 305 306 306 307 307 307 308 308 308 308 308 307 307 306 305 305 305 304 304 305 306 307 308 309 309 310 310 310 311 312 312 313 313 314 313 313 313 314 313 312 310 308 305 303 301 300 299 297 296 295 296 297 298 297 296 296 296 296 296 296 295 295 295 295 295 295
296 295 294 294 294 294 294 294 294 295 295 296 297 298 299 300 301 302 303 304 304 305 305 305 305 306 306 306 306 305 305 304 304 303 303 303 302 302 302 302 303 303 304 305 306 307 307 308 308 309 309 309 310 310 310 310 310 310 309 309 307 303 302 301 300 298 297 297 296 295 295 295 299 297 294 295 296 296 296 295 295 295 295 295 295
296 295 294 293 293 293 293 293 293 293 294 294 294 295 296 297 299 300 301 302 303 304 304 305 305 305 305 304 304 303 303 302 302 302 302 302 302 302 302 301 301 301 301 302 302 303 304 305 305 306 306 306 307 307 307 308 308 308 307 307 305 303 302 301 300 298 297 297 297 296 295 295 301 298 293 295 295 294 296 295 295 295 295 295 295
295 295 294 293 293 293 292 292 293 293 293 293 293 293 294 295 296 298 299 300 301 302 303 304 304 303 303 302 301 300 299 298 298 299 300 301 301 302 302 301 301 301 300 300 300 300 301 302 302 303 303 304 304 304 304 305 305 306 306 306 305 304 302 300 299 298 297 297 296 296 296 296 299 296 295 298 296 294 295 295 295 295 295 296 295
295 294 293 292 292 292 292 292 292 292 292 293 293 293 293 294 295 296 297 298 299 300 301 302 301 301 300 299 298 297 296 296 297 298 299 299 300 300 301 301 301 301 300 300 300 299 299 299 300 300 300 301 301 302 302 303 302 303 303 303 303 303 302 299 298 298 298 297 296 296 296 295 295 295 297 299 298 297 295 294 295 295 295 295 295
296 295 293 292 292 292 291 291 291 292 292 292 293 293 292 293 293 294 295 296 297 298 298 299 298 298 297 296 296 295 295 295 296 297 297 298 298 298 299 299 299 300 300 300 299 299 299 299 299 299 299 299 299 299 300 300 300 301 301 300 300 300 300 298 298 298 297 296 297 296 296 295 294 294 295 295 296 298 297 295 294 294 294 294 294
295 295 293 292 292 292 291 291 291 291 292 292 292 292 292 292 292 293 293 293 294 296 296 296 296 296 295 295 294 294 294 294 295 296 296 296 296 296 296 297 297 298 298 298 298 298 299 299 299 298 298 298 298 298 298 298 298 299 299 299 299 299 298 298 297 297 297 296 297 296 296 296 295 294 294 294 294 295 297 299 295 292 293 293 293
295 293 293 292 292 292 291 291 291 290 291 291 291 291 291 291 292 292 291 291 292 293 294 294 295 295 294 294 293 293 293 293 294 294 293 293 293 293 294 294 295 295 295 295 296 297 297 298 298 298 298 298 298 297 297 297 297 297 297 298 298 298 298 298 297 297 297 296 296 296 295 295 294 294 294 294 295 293 295 296 293 291 293 294 294
296 293 292 293 292 292 291 290 290 290 290 290 290 290 290 290 290 290 290 290 291 292 292 293 293 293 292 292 291 291 291 292 291 291 290 290 290 290 290 291 291 292 292 293 293 294 295 296 297 298 298 298 297 297 297 296 296 296 296 296 297 297 297 297 297 297 296 296 296 295 295 295 294 294 294 294 295 294 294 294 292 292 292 293 294
297 295 293 292 292 292 291 290 289 289 289 289 290 289 289 289 289 289 288 288 289 289 290 290 290 290 289 289 289 288 288 288 288 287 287 287 287 287 287 288 288 288 289 290 290 291 292 293 295 295 296 296 296 296 295 295 295 295 295 296 296 296 296 297 297 297 296 296 296 295 295 295 294 294 294 294 294 294 295 294 293 293 292 292 294
297 297 294 292 292 292 291 290 289 288 288 288 289 289 288 288 288 288 287 287 287 287 288 288 287 287 287 287 287 286 286 286 286 285 285 285 285 286 286 286 286 286 286 286 287 288 289 290 291 292 293 293 293 294 294 294 294 294 294 294 294 295 295 295 295 296 296 296 295 295 295 294 294 294 294 294 294 294 294 294 293 294 293 292 293
297 297 294 292 292 292 291 290 289 288 288 288 288 288 288 287 287 287 286 286 286 286 286 286 286 286 286 286 286 286 286 285 285 285 285 285 285 285 285 285 285 285 285 285 285 286 286 287 287 288 289 289 290 291 292 293 293 293 293 293 293 294 294 294 294 294 295 295 295 295 295 295 294 294 293 293 293 294 294 294 294 294 293 291 292
297 296 294 292 293 292 291 290 289 287 287 287 287 287 287 287 286 286 286 286 286 286 286 286 286 286 286 286 286 286 286 286 285 285 285 286 285 285 285 285 285 285 285 285 285 286 286 286 286 286 286 286 287 288 289 290 291 292 293 293 293 293 293 293 293 293 294 294 294 294 294 295 294 294 294 293 292 292 293 293 294 295 294 293 293
296 296 294 292 292 292 291 290 288 287 287 287 287 287 287 287 287 287 287 286 287 286 286 286 286 286 286 286 286 286 286 286 286 286 286 286 286 285 285 285 285 285 285 286 285 286 286 286 286 286 286 286 286 286 286 287 288 289 290 291 291 292 292 292 292 292 293 293 293 293 293 294 294 294 294 293 293 292 292 292 293 293 294 294 295
296 295 293 291 292 292 291 290 289 288 288 288 287 287 287 287 287 287 287 287 287 287 286 286 286 286 286 286 286 286 286 286 286 286 286 286 286 286 286 286 285 285 285 285 286 286 286 286 286 286 286 286 286 286 286 286 286 286 286 287 288 289 290 291 291 292 292 292 292 292 292 293 293 293 293 293 293 293 292 292 292 292 293 294 294
296 294 292 291 292 292 291 291 290 289 289 288 288 287 287 287 287 287 287 287 287 287 286 286 286 286 286 286 286 285 285 286 286 286 285 285 285 285 285 285 285 285 285 285 285 285 285 285 285 285 285 285 286 286 285 285 286 286 285 285 286 286 287 288 289 290 291 291 291 292 292 292 292 292 292 292 293 293 293 292 292 291 292 292 293
296 294 292 291 292 292 292 291 291 290 289 289 288 287 287 287 287 287 287 287 287 286 286 286 286 286 286 286 285 285 285 285 285 285 285 285 285 284 284 285 284 285 285 285 285 285 285 285 285 285 285 285 285 285 285 285 285 285 285 285 285 285 285 285 286 287 288 289 290 290 291 291 291 292 292 292 292 292 292 292 292 291 291 291 292
295 295 292 290 291 293 292 292 291 290 289 288 288 287 287 287 287 287 286 286 286 286 286 286 286 286 286 286 285 285 285 284 284 284 284 284 284 284 284 284 284 284 284 284 284 285 285 285 285 285 285 285 285 285 285 285 285 285 285 285 285 285 285 285 285 285 285 286 287 288 289 290 291 291 291 291 291 291 291 291 291 291 291 291 291
294 295 292 290 291 292 292 292 292 290 289 288 288 288 288 287 287 287 287 286 286 286 286 286 286 286 285 285 285 285 285 285 284 284 284 284 284 283 283 283 283 283 284 284 284 284 284 284 284 285 285 285 285 285 285 284 284 284 284 285 285 285 285 285 285 285 285 285 285 285 286 287 288 289 290 290 291 291 291 291 291 290 290 290 290
295 294 291 289 290 292 292 292 291 291 289 289 288 288 288 288 288 287 287 287 286 286 286 286 286 286 285 285 285 285 285 285 284 284 284 284 283 283 283 283 283 283 283 283 283 283 283 283 283 284 284 284 284 284 284 284 284 284 284 284 284 284 284 284 284 284 285 285 285 285 285 285 286 287 288 289 290 290 290 290 290 290 290 290 290
294 292 289 289 291 291 291 291 291 291 290 289 289 288 288 288 287 287 287 287 287 286 286 286 286 286 286 285 285 285 285 284 284 284 283 283 283 283 283 283 283 283 283 282 282 282 282 282 282 282 282 282 283 283 283 283 283 283 283 283 283 283 283 283 284 284 284 284 284 284 285 285 285 285 286 287 288 289 289 290 290 290 290 290 290
293 292 289 289 290 290 291 291 290 290 290 290 289 288 288 288 287 287 287 287 287 286 286 286 286 286 286 285 285 285 285 284 284 283 283 283 282 282 282 282 282 282 282 282 282 281 281 281 281 281 281 281 281 281 281 281 281 281 281 281 281 282 282 282 283 283 284 284 284 284 284 285 285 285 285 285 286 287 288 289 289 289 289 289 289
294 293 290 289 289 289 290 290 290 290 290 290 290 288 288 288 287 287 287 287 287 287 286 286 286 286 286 286 285 285 285 284 283 283 283 282 282 282 282 281 281 281 281 281 281 281 280 280 280 280 280 280 280 280 280 280 280 279 280 280 280 280 281 281 282 283 283 283 284 284 284 284 285 285 285 285 286 286 287 288 288 289 289 289 289
294 293 292 289 288 288 290 290 290 290 290 290 290 288 288 288 288 288 287 287 287 287 287 287 286 286 286 286 286 285 285 284 283 283 282 282 282 282 281 281 281 281 280 280 280 280 279 279 279 279 279 279 279 279 279 279 278 278 278 279 279 279 280 280 281 281 282 282 283 283 283 284 284 285 285 285 285 286 286 286 287 288 288 288 288
292 292 292 290 288 288 289 290 290 289 289 289 289 288 288 288 288 288 288 287 287 287 287 287 287 286 286 286 286 286 285 284 283 282 282 282 282 281 281 281 280 280 280 280 279 279 279 279 278 279 278 278 278 278 278 277 277 277 278 278 278 279 279 280 280 281 281 282 282 282 283 283 284 284 285 285 285 285 286 286 286 287 287 288 288
291 291 292 292 290 287 287 289 289 289 289 289 288 289 288 288 288 288 288 288 287 287 287 287 287 286 286 286 286 285 285 284 283 282 282 281 281 281 280 280 280 279 279 279 278 278 278 278 278 278 278 278 277 277 277 277 277 277 277 278 278 279 279 280 280 280 281 281 282 282 282 283 283 284 284 285 285 285 285 286 286 286 287 287 288
291 291 291 292 290 287 286 288 289 289 289 289 289 289 289 289 289 288 288 288 288 287 287 287 286 286 286 285 285 285 285 284 282 281 281 281 280 280 280 279 279 279 278 278 277 277 277 277 277 277 277 277 277 277 277 276 277 277 278 278 279 279 279 279 279 280 280 280 281 281 282 282 283 283 284 284 284 285 285 285 285 286 286 287 287
291 291 291 290 288 286 287 288 288 289 289 289 289 289 289 289 289 288 288 288 288 287 287 287 286 286 285 285 285 285 284 283 282 281 280 280 279 279 279 278 278 277 277 277 276 276 276 276 276 276 276 276 276 276 276 276 277 278 278 278 278 278 278 279 279 279 279 279 280 280 281 281 282 282 283 283 284 284 285 285 285 285 286 286 287
291 290 290 289 286 286 287 287 288 289 289 289 289 289 289 289 289 289 288 288 288 288 287 286 286 285 285 285 285 285 284 282 281 280 279 279 278 278 277 277 277 276 276 276 275 275 275 275 275 275 275 275 275 275 275 276 277 277 278 278 278 278 278 278 278 278 278 279 279 279 280 280 281 281 282 282 283 283 284 284 285 285 285 286 286
291 291 291 290 287 285 286 287 289 290 290 289 290 290 289 290 289 289 288 288 288 287 287 286 286 285 285 284 284 284 283 281 280 279 279 278 277 277 276 276 276 275 275 275 274 274 274 274 273 273 273 273 273 273 274 275 276 276 277 277 277 277 277 277 277 277 277 278 278 278 279 279 279 280 281 281 282 282 283 283 284 284 285 285 285
293 293 293 291 287 286 287 289 290 290 290 290 290 290 290 290 289 289 288 288 287 287 286 285 285 284 284 284 283 282 281 280 279 278 277 277 276 276 275 275 275 274 274 274 273 273 272 272 272 271 271 272 272 272 273 273 274 275 275 275 275 275 275 276 276 276 276 276 277 277 277 278 278 279 279 280 281 281 282 282 283 283 284 284 285
293 293 291 288 287 288 289 290 290 290 290 290 290 289 289 289 289 288 288 287 287 286 285 284 284 283 283 282 281 280 279 278 277 277 276 275 275 275 274 274 274 273 273 272 272 271 271 270 270 270 270 270 270 270 271 272 272 273 273 274 274 274 274 274 274 275 275 275 275 275 276 276 276 277 278 278 279 280 280 281 282 282 283 284 284
295 293 289 286 288 289 289 289 290 290 290 289 289 288 288 288 288 287 287 286 285 285 284 283 283 281 280 280 279 278 277 276 275 275 274 274 274 273 273 272 272 271 271 270 270 269 269 268 268 268 268 268 268 268 269 270 270 271 272 272 272 272 272 272 272 272 272 273 273 273 274 274 274 275 275 276 277 278 279 280 281 282 282 283 283
292 291 288 288 289 290 290 290 290 289 289 288 288 288 287 287 287 286 286 285 284 284 283 282 280 279 278 278 277 276 275 274 274 273 273 273 272 271 270 270 270 270 269 269 268 268 267 267 267 267 266 266 266 267 267 268 269 270 270 270 270 270 270 270 270 270 270 271 271 272 272 273 273 273 274 275 276 277 279 280 280 281 282 283 283
289 289 289 290 290 290 290 290 289 289 288 288 287 287 287 286 285 285 284 284 283 282 281 279 278 277 276 276 275 274 273 273 272 272 271 271 270 269 269 268 268 268 267 267 266 266 266 266 265 265 265 265 265 265 266 267 268 269 269 269 269 269 269 269 269 269 270 270 270 271 271 272 272 273 273 274 275 276 277 278 279 280 281 282 282
289 290 290 290 290 290 290 289 288 288 287 286 286 286 285 285 284 283 283 282 281 279 278 277 276 275 275 274 273 272 272 272 271 271 270 269 268 268 268 267 266 266 266 265 265 265 265 264 264 264 264 264 265 265 265 266 267 267 268 268 268 268 268 269 269 269 269 270 270 271 271 272 272 272 273 274 275 276 276 277 278 279 279 280 281
290 290 290 290 289 289 288 288 287 286 285 284 284 284 283 283 282 282 281 279 278 277 276 275 275 274 273 272 272 271 271 271 270 269 268 267 267 267 267 266 265 265 264 264 264 264 264 264 264 264 264 264 264 264 264 265 266 267 268 268 268 268 269 269 269 269 269 269 270 270 270 271 271 272 273 274 275 275 276 276 277 277 278 279 280
289 289 289 288 288 288 287 286 285 284 283 282 282 282 282 281 280 279 278 277 275 275 274 274 273 272 271 271 271 271 270 270 269 268 267 266 266 266 266 265 264 264 264 263 263 263 263 263 263 263 263 263 263 263 263 264 265 267 267 268 268 268 268 268 268 269 269 269 269 269 270 270 271 272 273 274 274 275 275 276 276 277 277 278 278
288 288 288 287 287 286 285 284 283 282 281 280 280 280 280 279 278 277 276 275 274 273 273 272 272 271 270 270 270 269 269 268 267 267 266 265 265 265 265 264 264 263 263 263 263 263 263 263 263 263 263 263 263 263 263 264 265 266 267 268 268 268 268 269 269 269 269 269 269 269 270 270 271 271 272 272 273 273 274 275 275 276 277 277 277
287 287 287 287 286 284 283 282 281 280 279 279 279 279 278 277 276 275 274 273 272 272 272 271 271 270 269 269 269 268 267 267 266 265 265 265 265 265 264 264 263 263 262 262 262 262 262 262 262 262 262 263 263 263 263 264 265 266 267 268 269 269 269 269 269 270 270 270 270 270 270 270 270 271 271 272 272 273 273 274 274 275 276 277 277
287 286 286 286 284 282 281 280 279 279 278 278 278 277 276 276 275 274 273 272 271 271 271 270 269 269 269 269 268 267 266 265 265 264 264 264 264 264 263 263 263 262 262 262 262 262 262 262 262 262 262 263 263 263 263 264 265 266 267 268 269 269 270 270 270 270 270 270 270 270 270 270 270 271 272 272 273 273 273 274 274 275 276 277 277
286 285 285 285 283 281 280 279 278 278 277 277 276 276 275 275 274 272 271 270 270 270 270 269 268 268 268 268 266 265 265 264 264 264 263 263 263 263 263 262 262 262 262 261 261 262 261 261 262 262 262 263 263 263 264 264 265 266 267 268 269 270 270 271 271 271 271 270 270 270 270 271 271 272 273 273 274 274 274 274 274 275 275 276 277
285 285 284 283 282 281 279 277 277 276 276 275 275 274 274 272 271 270 270 269 269 269 268 268 267 267 267 266 265 264 264 264 263 263 263 263 263 262 262 262 262 261 261 261 261 261 261 261 262 262 262 263 264 264 265 265 266 266 267 268 269 270 270 271 271 271 271 271 271 271 272 272 273 273 273 273 273 273 273 273 274 274 274 275 276
283 283 282 282 281 279 277 276 275 275 274 274 273 272 272 271 270 270 269 269 268 268 267 267 267 266 266 265 264 264 263 263 263 263 262 262 262 262 262 262 261 261 261 261 261 261 261 262 262 262 263 264 264 265 266 266 267 267 267 268 269 269 270 270 271 271 271 271 272 272 272 272 272 272 272 272 272 272 273 273 274 274 274 275 276
283 282 280 279 278 277 276 275 274 273 272 271 271 270 270 270 269 269 268 268 267 267 266 266 266 265 265 264 263 263 263 262 262 262 262 262 262 262 261 261 261 261 261 261 261 262 262 263 263 263 264 265 266 267 267 268 268 268 268 268 269 269 269 270 270 270 270 270 271 271 271 272 272 272 272 273 273 273 273 273 274 274 274 275 275
281 280 278 277 277 276 275 274 273 272 271 270 270 269 269 269 269 268 267 267 266 266 265 265 265 264 264 263 263 262 262 262 262 262 262 262 262 262 261 261 261 261 261 262 262 263 263 264 265 265 266 267 268 268 268 268 269 269 269 270 270 270 270 270 270 270 270 270 270 270 270 270 271 271 271 272 272 272 273 273 273 274 274 274 275
279 278 277 276 276 275 274 273 271 271 269 269 269 269 269 269 268 267 266 266 265 265 264 264 264 263 263 262 262 262 262 261 261 261 261 261 262 261 261 262 262 262 263 264 265 266 266 266 267 267 268 268 269 269 269 269 270 271 271 271 272 272 272 272 272 273 273 272 272 272 271 271 271 271 271 272 272 273 273 273 274 274 274 274 275
277 276 275 275 274 273 272 271 270 269 268 268 269 269 269 268 267 266 265 265 265 264 263 263 263 263 262 262 261 261 261 261 261 261 261 261 261 262 262 262 263 264 265 266 266 267 267 268 268 269 269 269 269 269 269 270 271 271 271 272 272 273 273 273 274 274 274 274 274 274 273 273 273 273 273 273 273 273 273 274 274 274 274 275 275
275 274 274 273 272 271 270 269 268 268 267 267 268 269 268 267 266 266 265 265 264 263 262 262 262 262 261 261 261 261 261 261 260 260 260 260 260 261 263 263 263 263 264 266 267 267 267 267 268 268 268 268 269 269 269 270 271 271 271 272 272 273 273 274 274 274 274 274 274 274 273 273 273 273 273 273 274 274 274 274 274 274 274 275 275
Wind_Speed
10 16 20 22 23 25 26 27 28 29 29 29 29 29 29 28 27 28 25 22 21 20 20 19 19 18 17 17 17 17 16 14 15 15 14 13 12 12 11 11 10 9 9 8 7 7 10 13 16 18 19 20 21 23 24 25 25 26 26 25 24 24 24 23 22 21 18 16 14 16 18 19 19 19 21 23 24 23 22 22 22 22 23 24 22
10 15 19 22 23 25 26 27 28 28 29 29 30 29 29 29 29 28 26 24 24 23 21 21 20 19 18 18 17 16 17 17 17 16 14 13 12 12 11 10 9 9 10 11 12 11 10 9 10 12 15 18 20 22 23 24 25 25 25 24 23 24 24 23 23 20 16 14 10 8 11 16 18 20 23 24 24 23 22 23 24 24 25 25 24
7 10 16 21 22 24 26 26 27 27 28 29 29 29 29 29 28 27 26 25 25 23 23 23 21 19 18 18 16 17 18 18 17 17 15 14 14 13 12 10 8 7 7 8 9 11 12 12 11 11 12 14 17 19 20 21 23 24 24 24 23 23 23 22 23 23 19 14 7 4 4 6 10 17 25 28 25 24 24 25 25 26 27 25 25
7 8 13 17 20 24 26 26 26 27 29 29 29 29 29 28 27 26 25 24 24 23 23 23 22 21 21 20 18 18 18 16 16 17 16 17 18 17 16 14 12 10 8 7 7 8 9 10 11 11 12 12 13 15 17 19 20 22 23 24 23 21 21 22 24 26 25 17 7 2 1 0 4 9 16 24 27 27 27 27 27 27 27 26 26
6 7 9 14 18 21 23 23 24 27 28 28 28 28 28 27 26 25 25 24 23 22 21 20 20 19 19 18 17 18 18 19 19 19 18 17 18 18 17 17 17 15 14 12 10 9 8 9 9 10 11 11 11 12 14 17 18 20 21 23 24 22 21 23 24 25 29 28 17 5 1 2 4 3 5 12 21 27 29 28 28 29 28 27 27
5 7 8 12 15 18 20 21 23 27 27 26 27 27 28 28 27 26 26 25 24 23 20 19 19 19 18 19 20 20 21 22 22 21 20 18 17 14 13 14 15 16 16 15 14 12 11 10 10 9 10 11 11 11 11 12 15 18 20 21 23 24 23 22 22 24 28 33 31 20 12 7 3 1 1 4 9 20 28 29 29 30 30 29 29
5 7 8 11 13 15 17 20 24 26 25 25 27 28 29 29 28 28 28 27 25 24 22 21 22 22 22 23 23 22 21 20 20 20 20 18 16 15 14 13 12 12 12 13 13 13 13 12 11 11 11 11 11 11 11 11 12 14 18 20 21 23 24 22 22 24 25 29 34 34 29 20 12 7 3 3 5 9 19 27 30 30 29 30 30
5 5 7 10 12 13 16 21 24 24 23 26 28 28 29 29 29 29 28 28 26 25 24 24 25 24 24 24 24 23 22 21 19 18 18 16 16 17 16 15 14 12 11 11 11 11 11 12 12 13 12 12 13 12 12 12 12 12 14 17 18 20 22 23 24 25 23 24 29 34 36 33 27 20 13 8 4 4 8 16 25 30 30 30 31
4 4 6 9 12 14 17 21 22 22 23 25 26 27 27 28 28 28 29 28 27 27 28 28 27 27 26 26 26 25 23 22 21 20 20 19 19 19 18 17 16 14 13 12 12 11 11 10 10 11 12 13 14 14 13 13 13 13 13 15 16 18 19 21 24 25 25 25 26 28 30 32 32 30 24 17 9 7 5 4 12 20 23 30 36
4 5 7 10 12 15 18 20 21 21 22 23 24 25 26 27 27 28 28 28 27 28 29 30 29 29 29 29 28 27 26 25 25 26 26 25 25 25 23 22 20 18 17 16 14 13 12 11 10 10 10 11 12 13 13 13 13 13 13 14 15 16 18 19 21 24 26 28 28 26 25 24 23 22 22 21 16 11 8 6 9 12 13 24 34
4 5 8 11 13 15 17 19 19 19 21 22 23 24 25 26 26 28 28 27 27 28 29 30 30 30 30 29 29 28 27 27 28 29 29 29 29 28 27 27 26 25 24 22 21 18 15 13 11 10 10 11 12 13 14 15 15 15 14 14 14 15 16 17 19 21 23 26 28 29 28 25 22 18 19 22 18 12 9 8 11 14 14 20 27
4 4 6 9 12 13 15 17 18 19 20 22 22 23 24 24 25 27 27 27 27 27 29 30 30 30 29 29 29 28 28 28 29 29 28 28 29 28 28 28 28 28 28 28 27 24 22 19 15 13 13 13 14 15 16 16 15 15 15 15 15 15 16 16 18 19 20 23 26 27 30 30 30 28 25 25 23 20 16 10 10 14 13 17 24
3 3 4 6 9 10 13 15 17 19 19 20 20 21 22 22 24 26 26 26 26 27 28 29 30 30 29 28 28 27 27 27 27 27 27 27 27 27 27 27 27 28 28 28 27 26 25 24 21 19 18 17 17 16 16 16 15 15 15 16 16 17 17 17 18 18 19 20 23 25 27 29 30 30 29 29 28 27 21 13 13 14 11 13 19
3 3 3 5 7 9 11 14 16 17 17 18 19 19 21 21 23 25 25 24 25 26 27 28 29 28 27 27 26 25 26 26 25 25 24 24 24 24 25 25 25 25 25 25 24 24 24 23 23 22 21 21 20 18 17 16 16 16 16 16 17 17 17 18 19 19 19 20 21 22 24 26 28 29 29 30 28 27 24 17 14 14 14 14 14
3 3 3 5 7 8 11 13 15 16 17 18 18 18 19 20 21 23 23 23 23 24 25 26 26 26 25 25 24 24 23 23 23 22 22 22 22 22 22 22 22 22 22 22 21 21 22 21 21 22 22 22 21 21 20 19 18 17 18 18 18 18 18 19 19 20 21 21 21 22 23 25 25 26 27 28 28 28 28 26 19 11 10 11 9
3 3 3 5 8 9 11 13 14 15 16 16 16 16 17 18 19 20 20 19 20 21 22 23 23 23 23 23 22 21 21 20 20 20 20 20 19 20 20 20 20 20 20 21 21 21 21 21 21 21 21 21 21 21 21 21 20 19 19 19 19 19 20 20 20 21 21 21 22 22 24 25 25 24 25 26 27 27 28 30 26 17 11 8 7
4 4 5 7 9 10 11 12 13 13 13 13 14 14 15 15 16 16 16 16 16 17 19 19 20 21 22 21 21 20 19 18 17 17 17 17 18 18 18 19 20 20 21 21 21 21 21 21 21 21 21 22 22 22 22 22 21 21 20 21 21 21 21 21 21 22 22 22 22 22 23 25 25 24 25 25 25 27 27 28 29 26 19 11 7
5 6 7 10 11 11 12 12 12 11 11 11 12 13 13 14 14 14 14 14 15 15 16 16 18 19 19 19 18 18 17 16 15 15 16 16 18 19 19 20 20 21 21 22 22 23 23 23 23 23 23 23 23 23 23 23 23 23 23 22 22 22 22 22 22 23 23 23 24 24 24 25 25 25 25 25 25 25 26 27 29 30 28 20 12
6 6 7 10 13 13 13 14 13 12 12 12 12 12 13 13 13 13 13 13 13 14 14 15 15 16 15 15 16 15 15 15 13 13 15 16 18 20 21 21 21 22 22 23 24 24 25 25 25 25 25 25 25 24 24 24 24 24 25 25 24 24 25 24 24 23 23 24 25 26 26 26 25 25 26 26 25 25 26 27 27 29 30 30 24
7 7 7 10 15 16 15 16 16 14 13 13 13 13 12 12 12 12 12 12 13 13 14 14 14 13 12 12 13 14 14 15 14 14 15 15 16 19 20 21 21 22 22 23 23 24 25 26 26 27 28 28 28 28 27 27 26 26 26 26 26 26 26 27 27 27 25 25 26 27 27 27 27 27 28 27 27 26 26 26 27 28 30 31 30
8 7 7 12 15 16 17 17 16 15 14 13 13 12 11 10 10 10 10 11 12 13 13 13 13 12 11 11 12 13 15 15 15 16 16 16 16 18 20 20 21 22 23 23 23 23 24 25 25 26 27 28 29 30 30 30 30 30 29 28 28 28 28 28 29 29 29 28 28 28 28 27 27 28 29 29 29 28 27 27 26 27 29 30 29
8 7 8 12 15 16 17 17 17 16 15 13 12 11 11 10 9 8 8 9 10 11 12 12 12 12 12 12 13 14 16 17 17 18 18 18 18 19 20 21 22 23 24 24 25 25 25 26 26 26 27 27 28 29 30 31 32 32 32 32 31 30 30 31 30 31 30 30 30 30 29 28 27 28 29 29 30 29 28 29 27 26 28 29 27
7 7 10 13 15 16 17 17 17 16 15 14 12 11 10 9 8 7 7 7 7 8 9 10 11 12 13 14 14 15 17 18 19 20 20 20 20 21 21 22 23 24 24 25 26 27 28 28 29 29 29 30 31 31 31 32 32 33 34 35 34 33 32 32 32 33 32 31 31 31 31 30 29 29 30 29 29 30 29 30 30 28 28 28 27
6 7 9 13 15 16 17 17 16 15 14 13 12 10 9 7 6 6 6 6 5 5 6 8 9 10 12 14 15 16 18 19 20 21 22 22 22 23 23 23 24 25 26 27 28 29 30 31 31 32 33 33 34 34 34 34 34 33 34 35 36 35 34 34 33 34 34 33 33 34 34 33 31 30 31 30 28 29 30 30 31 30 29 29 28
6 6 7 10 13 14 15 15 15 14 13 13 13 10 8 6 5 5 5 5 4 3 4 5 6 8 10 13 15 18 20 21 22 22 23 23 24 24 25 25 27 28 29 30 31 32 32 33 33 34 34 35 35 35 36 36 35 34 33 33 34 34 34 35 35 35 35 35 35 36 37 35 33 32 32 32 30 29 29 29 30 31 30 29 29
7 7 7 8 10 12 15 16 16 15 13 13 14 11 8 6 5 3 3 3 3 2 3 5 6 8 10 13 15 18 21 22 22 22 23 23 24 25 26 27 28 30 32 33 34 35 35 35 35 35 34 35 35 35 35 35 35 33 32 33 33 33 33 34 35 35 36 36 36 37 38 37 35 34 34 34 32 31 31 30 30 31 30 29 29
6 7 6 7 8 12 16 17 17 16 14 14 14 12 10 8 6 5 3 0 1 3 4 6 8 10 12 14 16 18 22 24 24 23 23 23 24 25 26 27 29 31 33 35 36 37 37 36 36 36 35 35 35 36 36 35 33 32 31 31 33 33 34 34 35 35 36 36 36 37 38 38 36 36 36 36 34 33 32 32 32 31 30 28 29
6 6 7 8 8 11 15 17 17 17 16 15 14 13 12 10 8 6 5 4 4 4 6 7 9 10 12 13 15 17 21 24 25 24 24 24 25 27 28 29 30 32 34 35 36 37 37 37 36 36 36 37 37 39 38 34 32 31 30 31 32 33 34 35 36 36 37 37 37 37 38 38 38 38 38 38 37 35 33 33 33 31 29 28 29
7 8 9 9 9 10 14 17 17 18 18 17 16 15 14 12 10 8 8 8 8 6 7 8 9 10 11 13 14 17 21 24 25 25 25 26 27 28 30 31 33 34 35 36 36 35 35 36 37 37 38 38 39 40 39 34 31 32 32 32 32 32 33 35 36 38 39 39 39 39 38 38 38 38 39 40 39 38 36 36 35 33 30 29 29
9 10 10 9 9 12 14 16 18 19 20 20 19 17 16 15 14 13 11 11 10 8 8 9 10 11 12 13 15 18 22 25 26 25 26 27 28 30 31 33 35 36 37 37 37 36 35 35 36 38 39 39 39 40 39 35 32 31 32 33 34 34 34 35 37 38 40 41 40 40 40 40 40 39 39 40 41 41 40 40 40 37 34 32 31
10 10 9 7 8 11 14 16 19 21 22 22 21 19 18 18 17 16 13 12 11 9 9 10 11 11 13 15 17 21 25 27 26 26 27 28 29 31 33 35 36 37 37 37 37 37 37 36 35 37 38 39 40 40 36 33 32 31 31 33 35 37 37 37 37 38 40 41 41 41 40 41 41 41 40 40 39 40 40 41 42 41 39 37 35
9 8 7 7 8 11 14 18 21 23 23 22 22 21 21 21 20 18 14 12 11 10 10 11 12 12 14 16 20 24 26 27 27 27 28 29 31 33 34 36 36 37 37 37 37 37 38 37 35 36 38 39 40 38 33 31 32 31 31 31 34 37 39 40 40 39 40 41 41 42 41 41 42 42 42 41 40 40 40 40 41 42 42 42 41
8 8 7 8 10 14 17 21 23 24 24 23 23 23 23 23 21 17 13 11 10 10 11 11 11 13 15 18 21 24 25 26 26 27 29 31 33 34 35 35 36 36 36 37 37 37 38 36 34 34 37 39 39 35 31 31 32 32 32 32 34 37 40 41 43 42 42 42 41 41 41 42 42 41 41 41 40 41 41 40 40 41 43 44 44
7 6 7 10 13 16 19 22 23 25 24 24 23 23 22 19 16 13 11 10 10 10 10 11 11 14 17 19 21 22 23 24 26 27 30 31 32 33 33 33 35 35 36 37 38 38 37 36 33 33 35 38 37 33 30 32 33 33 33 33 34 36 36 37 39 39 40 41 40 39 40 42 42 41 41 42 42 43 42 41 39 39 41 43 43
5 5 8 12 15 17 19 21 22 24 24 23 21 19 16 13 12 12 11 10 10 10 10 12 13 16 17 19 20 21 22 24 26 28 29 30 30 31 32 32 33 34 35 36 37 37 37 36 34 32 35 38 37 31 30 33 33 33 33 33 33 33 34 35 37 36 37 39 40 41 42 43 44 44 43 41 41 41 41 41 40 40 41 42 43
7 8 11 13 15 15 16 16 17 19 19 18 16 15 14 13 13 12 11 10 10 10 11 13 15 15 16 17 19 21 23 25 26 27 28 28 29 30 30 30 32 33 34 34 35 35 35 35 35 33 34 39 39 32 30 32 32 31 33 32 32 33 34 35 36 36 35 36 37 38 39 41 43 44 43 39 38 39 39 40 41 41 41 41 42
10 11 12 13 13 13 13 13 14 15 15 15 15 16 15 14 13 11 11 10 10 11 12 14 14 15 16 17 19 21 23 25 25 26 27 28 28 29 29 29 30 33 33 33 34 35 33 33 35 34 33 38 40 34 29 31 32 32 32 32 31 32 32 33 34 34 33 33 33 33 34 36 38 39 38 36 35 36 37 39 41 42 41 40 41
11 11 12 13 14 13 13 14 15 15 16 16 16 16 15 13 12 10 10 10 11 11 12 13 13 15 17 18 20 21 22 23 24 24 26 26 27 28 28 28 29 31 33 33 33 34 34 32 33 34 33 35 39 35 30 31 33 32 32 32 31 31 31 32 33 33 32 33 33 32 32 33 34 35 35 35 34 34 36 37 38 39 39 40 42
12 12 12 13 13 12 13 16 17 17 16 15 15 14 13 11 9 9 9 10 10 10 11 12 14 16 18 19 19 20 20 21 23 23 24 25 26 27 28 28 28 30 32 33 32 33 34 32 32 34 33 32 36 37 33 32 33 31 30 31 31 31 31 31 32 33 32 32 33 33 32 32 34 35 35 35 34 34 35 37 37 36 35 38 41
11 10 10 10 11 13 16 17 17 16 15 14 12 11 9 8 7 8 9 9 10 10 11 13 15 17 18 18 17 18 18 20 21 22 23 23 25 26 27 28 29 30 32 33 32 32 34 34 33 33 33 31 34 37 34 31 31 30 30 30 31 32 33 33 33 34 35 34 33 33 32 31 32 34 34 34 35 34 35 36 36 34 34 38 42
10 10 9 9 12 16 17 17 16 15 14 12 10 8 7 7 7 8 8 9 10 11 13 14 16 17 17 17 16 17 18 18 19 21 23 23 24 25 27 28 30 31 32 33 33 32 34 35 33 31 31 31 31 33 33 31 30 30 30 30 32 33 33 35 35 35 35 34 33 32 33 32 33 36 37 38 39 38 39 39 39 37 37 40 42
10 9 9 12 15 16 16 16 15 14 12 10 8 7 7 7 7 7 9 10 11 12 14 15 16 16 16 16 16 16 17 18 18 19 21 24 24 24 26 28 30 31 32 33 33 32 32 33 32 30 30 32 31 32 32 31 30 30 30 30 32 33 32 34 36 34 32 34 34 35 36 36 37 38 39 39 39 39 39 40 42 42 42 43 43
10 10 13 16 17 17 17 16 14 13 11 9 8 7 7 7 7 8 10 11 12 13 14 15 16 16 16 16 16 17 17 17 18 19 20 23 25 25 26 28 29 31 32 32 31 30 30 32 32 31 30 32 33 33 33 32 31 31 31 31 32 33 32 34 35 33 32 35 37 38 39 38 37 38 39 39 39 39 39 39 40 42 43 44 44
11 12 15 18 19 19 18 16 14 12 10 9 8 7 7 7 8 9 10 11 12 13 14 15 15 16 16 16 16 17 17 17 18 18 20 22 24 26 27 27 28 28 30 30 29 29 28 29 31 32 33 34 35 35 35 33 32 32 32 32 33 33 33 34 36 37 36 38 39 39 40 39 38 38 39 40 40 41 41 41 41 42 44 44 43
13 14 16 19 20 20 19 16 13 11 9 9 8 8 7 8 9 10 11 12 12 13 14 15 15 16 16 17 17 17 17 17 17 18 20 22 24 26 27 27 28 27 28 29 29 28 28 29 30 32 34 36 35 35 35 35 34 33 32 32 33 34 34 35 37 39 39 40 41 41 43 43 41 41 41 40 40 40 39 39 40 41 42 42 41
14 16 18 19 19 18 17 15 12 11 10 9 9 8 8 8 9 10 11 12 13 13 14 15 15 16 16 17 18 18 18 18 18 18 20 21 23 25 27 28 28 27 27 28 28 27 27 28 28 30 33 35 35 34 34 35 34 34 35 35 35 36 37 38 39 40 40 42 43 43 43 43 42 42 40 39 39 38 37 38 39 40 41 40 39
17 19 20 20 18 17 15 13 12 11 10 10 8 7 8 9 10 10 11 12 13 13 14 15 15 16 17 17 18 19 19 19 20 20 21 22 23 24 26 28 28 28 27 27 27 27 26 27 29 31 32 33 33 34 34 34 35 35 36 37 37 37 37 38 39 40 41 43 44 43 41 41 41 40 40 40 40 39 38 37 37 38 39 39 39
17 19 20 19 17 15 13 12 11 10 10 10 8 7 8 9 10 10 10 11 12 13 14 15 16 16 17 17 18 19 20 21 21 21 21 23 24 24 26 27 28 28 28 28 27 27 27 29 32 33 32 31 32 33 33 34 35 35 35 35 34 34 34 34 36 39 41 42 42 41 39 37 37 37 37 38 37 37 36 36 36 36 37 38 39
18 19 19 17 15 13 11 10 10 9 9 9 8 7 8 9 10 9 10 11 12 13 14 15 16 17 18 18 19 19 20 21 22 23 23 23 24 24 25 28 29 27 27 28 30 30 31 32 33 33 32 32 32 32 33 35 36 36 38 38 36 36 37 36 35 38 38 35 32 31 29 28 28 30 31 31 31 33 34 34 35 36 36 36 37
18 17 16 14 12 10 10 9 8 8 8 9 8 7 8 9 9 9 9 11 12 13 15 16 16 17 18 19 19 20 20 21 22 23 24 25 25 23 23 26 28 28 26 27 29 31 33 35 36 35 33 32 33 35 36 36 37 38 40 39 38 39 40 39 38 39 38 31 25 23 22 22 24 25 25 26 29 31 31 30 31 34 35 34 34
18 16 14 12 10 9 9 8 8 8 8 9 9 8 7 8 9 8 9 10 11 13 15 16 17 18 19 19 20 20 20 20 21 21 23 25 28 29 28 26 25 26 27 27 28 29 31 32 33 34 34 33 34 36 37 36 37 38 39 38 38 38 38 39 40 39 34 26 22 21 21 23 25 25 25 28 30 30 28 28 28 30 33 34 33
Wind_Direction
37 40 43 45 47 50 50 51 53 54 54 57 60 62 63 67 69 68 67 69 69 68 69 71 71 69 68 67 64 60 59 60 60 55 50 47 44 44 45 43 35 25 12 356 333 294 266 251 243 239 239 239 242 246 246 246 245 244 241 237 235 234 235 236 236 232 226 225 230 236 237 236 236 237 239 241 241 242 241 240 241 242 243 244 244
39 39 40 43 47 50 50 51 52 52 52 55 59 61 64 67 68 68 69 70 71 71 74 75 74 73 71 69 65 62 58 57 59 58 56 54 48 43 38 34 30 24 17 12 7 1 347 322 293 270 255 246 243 243 243 241 241 241 240 237 235 235 236 237 230 222 216 218 225 242 251 247 244 242 241 242 241 241 241 240 241 241 242 244 245
35 35 35 39 43 50 51 49 50 52 53 56 60 62 65 66 67 69 71 72 73 75 78 79 80 81 80 77 74 71 66 63 63 61 58 56 52 47 43 35 27 21 13 6 4 5 3 356 346 327 300 276 260 251 246 244 243 242 241 240 238 234 234 236 231 225 217 213 219 248 259 259 257 250 245 242 239 240 241 241 242 241 243 244 245
35 33 31 35 40 47 49 48 49 52 53 54 57 60 62 65 68 71 73 75 77 80 83 86 88 88 87 85 84 81 76 72 68 61 58 58 56 53 48 42 36 30 22 12 6 4 2 357 354 348 339 323 299 279 267 260 254 250 247 244 240 234 233 235 235 230 221 213 210 227 208 253 267 256 250 247 240 238 240 241 242 243 243 243 243
40 38 27 32 38 44 49 51 53 53 52 52 54 58 61 66 70 74 77 78 79 83 88 93 93 91 90 86 81 76 68 61 56 52 53 55 55 54 52 49 46 42 35 27 19 10 5 359 353 348 346 343 334 317 295 282 273 266 260 253 246 241 240 241 240 233 226 224 220 208 170 235 248 259 277 261 242 235 238 239 240 243 244 244 244
46 45 33 34 40 46 49 52 56 57 55 56 59 62 64 66 70 74 77 79 80 82 86 91 89 84 82 76 68 62 55 50 48 48 49 50 50 52 53 50 49 48 44 38 33 27 19 9 359 352 349 346 343 339 324 304 290 281 275 267 259 254 250 247 245 241 235 231 227 227 236 239 254 278 275 292 257 236 235 237 238 240 243 245 246
46 45 40 40 43 47 49 50 56 59 60 64 66 66 66 66 68 72 75 78 81 83 86 87 86 82 79 76 69 64 58 52 53 55 54 52 53 54 55 52 47 44 40 34 32 31 30 26 17 7 359 354 349 344 339 328 310 296 286 277 271 265 256 250 250 250 244 237 233 234 238 246 263 272 239 274 304 255 237 236 237 239 241 244 247
49 46 41 43 45 48 52 55 60 64 66 69 70 68 68 67 68 71 74 77 81 86 88 87 86 84 80 78 73 68 63 58 58 58 55 53 52 52 54 56 52 46 38 29 23 21 23 26 26 21 14 6 0 354 347 340 328 314 302 291 284 275 263 256 253 253 250 247 244 241 242 247 256 261 261 264 280 287 259 241 238 239 241 243 246
59 59 51 49 50 53 59 63 65 68 69 71 73 74 74 72 72 73 73 74 79 84 87 86 85 84 81 78 74 70 69 66 63 60 57 54 50 47 47 50 50 47 41 33 27 23 19 16 16 18 16 11 4 358 352 346 340 330 321 312 304 294 282 270 262 258 256 256 255 251 249 251 254 258 262 265 264 265 273 254 240 240 240 242 243
65 67 65 61 61 64 68 70 70 71 73 75 76 77 78 77 76 76 73 73 76 80 82 82 81 80 77 75 72 69 67 65 63 60 57 55 53 49 46 45 45 44 41 36 32 28 23 17 12 7 3 1 357 353 349 344 341 336 329 323 316 310 302 291 280 272 266 262 260 259 257 255 256 258 258 260 262 256 253 260 249 237 237 245 246
80 71 71 72 73 73 74 74 72 74 78 79 78 77 78 79 79 78 76 75 76 77 80 79 78 77 74 72 69 66 63 61 59 56 53 53 52 49 48 47 46 45 43 40 37 32 29 23 16 7 355 350 348 345 342 336 333 330 327 324 320 316 312 306 298 289 280 273 267 263 261 258 256 255 254 254 253 250 255 265 257 247 243 249 251
95 79 75 76 75 74 74 72 71 73 76 77 78 79 80 80 81 81 78 77 77 77 79 79 78 77 75 73 70 67 65 62 60 56 53 52 50 48 47 45 44 43 42 41 39 35 33 29 22 13 1 352 346 340 337 334 330 326 324 322 320 318 314 311 307 301 294 286 279 273 268 265 260 258 257 255 252 254 258 263 266 263 255 252 254
108 97 83 78 74 72 73 72 71 72 73 77 80 82 82 82 83 82 79 78 79 79 79 79 78 78 76 75 73 71 68 66 63 60 56 53 51 48 46 43 41 40 39 39 38 37 36 34 30 25 16 7 357 349 343 339 336 334 331 327 323 320 317 315 310 307 303 296 291 286 279 274 269 266 264 259 256 256 256 260 267 265 258 262 262
128 113 92 84 82 80 79 77 76 77 78 81 83 85 86 86 86 85 83 82 82 82 81 80 79 79 78 76 74 71 69 66 64 61 58 55 52 49 46 44 41 39 38 36 35 34 35 34 33 31 28 23 16 9 0 351 343 337 336 334 330 326 322 319 315 310 306 301 297 294 289 284 281 279 274 267 262 257 254 256 264 264 257 259 266
139 113 104 102 100 95 92 89 87 87 86 87 88 91 92 91 91 89 87 85 84 83 82 81 80 79 78 76 73 70 68 65 61 57 54 52 49 46 44 41 39 37 35 33 30 29 28 28 27 26 25 24 21 18 13 6 358 348 341 335 331 329 326 321 319 315 311 308 303 299 296 292 290 288 285 278 271 264 259 257 257 262 264 258 257
159 137 135 130 123 116 109 106 103 98 94 93 94 97 99 98 96 94 90 87 85 82 80 79 78 76 74 71 68 66 64 61 57 52 49 46 42 40 37 34 32 30 27 25 23 22 21 20 20 18 17 15 14 13 11 9 6 0 354 346 339 334 329 322 319 316 314 312 309 305 302 298 295 293 291 288 282 274 268 264 258 253 259 266 261
177 172 171 154 139 133 128 123 121 117 110 106 105 104 107 106 103 100 96 92 87 83 79 76 73 71 67 65 62 58 56 52 48 45 42 41 38 35 31 28 25 22 19 17 15 14 14 13 12 11 9 7 6 4 3 1 360 359 357 353 349 343 334 327 323 318 314 312 309 307 306 303 302 299 295 292 290 284 277 271 264 257 254 258 267
190 187 179 169 157 151 148 142 139 138 135 129 123 117 113 112 110 108 103 97 91 86 82 76 71 67 63 60 55 51 48 45 41 35 31 29 27 25 23 21 19 16 13 11 9 8 7 6 5 4 2 1 359 358 356 353 351 350 349 348 346 344 338 334 331 325 320 316 311 307 305 303 303 302 300 297 294 290 285 278 272 265 259 253 258
195 191 187 181 173 167 162 159 155 153 153 149 143 137 127 118 112 108 105 101 96 91 85 79 73 68 62 56 50 45 43 40 37 28 21 19 17 15 14 13 11 9 7 6 4 2 1 360 358 357 356 354 353 352 350 348 345 343 342 340 339 337 335 333 332 330 326 322 317 312 308 305 302 299 299 299 297 294 290 284 278 271 264 258 256
197 191 193 190 182 177 171 169 166 161 158 155 151 148 140 129 118 111 108 105 99 90 83 78 74 70 63 53 43 39 37 34 32 27 20 16 10 6 7 5 4 2 1 1 360 358 356 354 352 350 349 347 346 344 344 342 339 337 335 333 332 331 329 326 326 326 325 323 320 317 314 310 306 302 297 295 295 294 293 288 283 276 269 264 259
200 194 194 191 187 183 177 175 173 166 162 160 156 152 147 142 135 120 107 97 88 81 78 76 74 70 62 53 40 32 29 25 23 20 17 14 7 2 1 359 357 357 356 354 353 352 350 347 345 343 341 340 338 337 336 335 332 330 329 327 326 325 323 321 320 318 319 319 317 315 314 312 311 307 301 298 294 291 291 288 284 279 272 267 262
201 197 193 190 187 184 179 177 176 174 172 168 164 161 155 148 140 125 103 90 81 74 71 69 65 60 51 42 32 24 19 16 14 11 9 8 4 0 358 354 353 352 350 348 346 344 342 340 338 336 334 332 330 329 328 327 326 325 323 322 321 320 318 316 314 312 312 313 312 309 308 309 310 307 303 301 297 293 290 286 282 279 274 270 265
201 195 192 187 183 181 178 178 179 180 179 174 168 163 156 146 134 123 105 91 81 68 60 54 48 42 36 28 21 15 11 8 6 4 2 1 358 356 353 350 347 346 344 342 341 339 337 334 332 330 329 327 325 324 322 321 320 319 319 318 316 315 313 311 309 307 306 306 305 303 301 302 304 302 300 299 298 294 291 286 282 278 273 271 267
203 196 190 185 182 180 180 182 184 184 185 184 176 165 158 149 128 113 101 91 81 62 47 37 30 25 20 16 12 8 3 0 358 356 354 353 351 349 347 345 342 340 338 336 335 333 332 330 328 326 325 323 322 322 320 318 317 316 315 313 313 311 309 307 304 302 301 301 300 297 296 296 296 294 293 293 293 292 290 286 283 279 274 271 268
202 195 187 184 183 183 186 190 192 192 194 191 182 174 171 167 144 111 94 80 70 50 24 13 5 0 0 2 2 1 358 354 351 348 347 345 344 342 341 340 338 335 334 332 331 330 328 326 325 323 322 321 320 319 317 315 314 313 312 310 310 308 307 305 302 299 298 296 295 293 292 293 291 288 287 287 287 287 286 284 281 279 277 274 270
200 190 185 186 187 191 194 198 200 198 195 189 184 183 186 187 179 151 108 72 49 15 349 339 334 334 337 342 348 351 351 348 344 341 339 338 337 336 335 334 333 331 329 328 327 327 326 323 321 320 318 317 317 315 313 311 311 311 311 310 308 306 304 302 300 297 295 293 291 290 289 288 286 283 282 283 283 282 281 279 278 278 277 275 272
197 183 183 189 195 202 204 205 202 195 189 186 187 193 198 198 198 196 187 178 333 320 318 315 312 315 320 326 333 339 342 341 337 334 333 332 331 330 329 328 327 325 324 323 323 323 321 320 318 317 316 315 314 312 309 309 309 310 310 309 307 305 303 300 298 295 293 292 289 287 287 285 282 280 279 279 279 279 277 276 275 276 275 273 270
193 185 190 196 203 209 209 206 200 194 192 193 196 204 208 208 210 213 221 242 268 286 297 297 295 300 309 315 322 329 334 334 331 328 327 326 326 325 325 324 323 322 320 320 320 319 317 316 314 313 313 312 311 310 308 309 310 310 309 307 304 302 301 299 297 295 293 292 289 287 285 283 280 278 277 276 276 275 274 274 273 272 271 269 267
193 197 201 203 208 210 207 206 203 199 199 202 206 211 213 216 223 229 235 243 251 268 284 285 284 291 300 309 317 324 329 329 327 324 323 323 322 322 321 321 320 319 318 317 316 315 314 313 311 311 310 310 309 307 307 310 311 311 309 306 303 300 298 296 295 294 292 291 289 288 286 283 281 278 276 275 274 272 271 270 271 270 268 266 264
199 205 208 208 210 209 209 210 209 206 207 210 214 217 220 226 230 231 234 236 240 256 275 277 279 287 297 306 312 319 323 323 322 320 320 320 319 319 318 318 317 316 315 315 314 313 312 310 310 309 308 308 306 305 306 309 310 309 308 306 303 300 297 295 292 291 290 289 288 287 286 285 284 282 279 276 274 273 270 268 268 268 265 264 263
207 211 214 215 215 214 216 216 214 215 216 218 222 225 228 232 233 232 234 234 237 252 269 272 276 284 294 302 309 314 317 318 317 317 317 317 317 317 316 315 314 314 314 314 312 311 310 309 309 308 307 306 304 304 307 310 309 308 307 306 304 301 298 295 292 289 288 288 287 286 285 285 285 284 283 281 278 275 272 269 268 267 265 262 259
214 218 219 220 218 216 219 221 222 223 224 226 230 232 233 236 238 237 235 232 237 253 267 270 275 285 295 303 308 311 312 313 313 314 315 316 315 314 314 314 313 313 313 312 310 309 308 307 308 306 305 304 302 304 309 309 307 307 307 305 302 299 297 294 292 289 287 287 286 286 285 284 283 283 282 282 281 279 276 273 271 269 266 263 259
215 220 219 221 222 221 224 228 230 232 234 236 238 238 240 242 241 235 229 229 240 256 264 268 278 289 298 305 307 308 308 309 310 312 313 313 312 312 313 313 312 312 311 309 308 307 305 306 307 305 304 302 302 305 309 308 307 307 306 305 301 296 293 291 289 288 287 286 286 287 287 285 283 282 282 281 281 281 281 279 275 271 268 265 262
225 228 230 234 236 236 237 239 241 243 244 244 244 243 244 241 232 222 220 227 241 251 258 269 283 294 301 304 304 304 305 306 308 309 309 309 310 311 311 311 311 310 309 307 306 306 305 305 305 305 304 302 302 306 309 307 306 306 305 303 299 294 292 290 288 287 287 287 286 286 286 285 284 283 282 281 282 282 283 281 278 273 269 265 263
234 232 234 236 237 241 244 246 248 248 247 245 244 240 232 218 208 209 216 227 238 246 259 275 288 296 299 301 302 302 303 305 306 307 307 307 308 308 309 309 309 307 306 305 305 304 304 305 306 305 304 301 301 306 308 305 305 305 304 302 298 294 292 290 288 288 288 287 286 285 284 283 283 283 282 281 282 282 282 280 277 273 270 266 263
227 226 230 236 239 241 244 245 246 243 239 235 227 214 202 196 198 208 216 226 238 252 270 282 290 295 298 299 301 302 302 304 306 307 307 307 308 307 307 308 308 306 305 304 303 303 303 304 305 305 303 301 302 305 307 305 305 305 304 301 298 294 291 289 288 288 288 287 286 286 285 284 283 283 282 281 281 281 281 280 278 276 272 268 263
233 236 242 251 253 248 241 235 228 220 212 205 197 193 193 194 197 206 217 231 249 265 277 284 289 294 297 299 300 302 304 306 306 306 306 307 307 307 308 309 307 306 305 304 303 302 302 302 302 303 302 301 302 305 306 305 305 304 302 300 296 292 290 288 288 289 289 289 288 287 287 287 286 285 285 284 282 280 279 278 278 277 276 273 269
240 244 253 263 262 253 238 222 208 196 190 189 188 189 192 193 197 211 227 244 261 270 277 285 291 295 297 299 301 303 305 305 305 305 306 307 308 308 309 310 308 305 304 302 301 300 300 300 300 301 301 301 301 304 306 305 303 302 299 297 294 290 289 288 288 289 289 289 288 288 288 288 288 288 288 288 286 282 279 277 276 276 276 274 271
246 249 259 269 264 245 222 205 193 183 181 183 186 188 190 194 207 227 245 257 266 272 279 288 293 295 296 299 302 304 304 304 305 306 307 308 309 309 310 310 308 304 302 301 300 299 299 299 299 299 300 300 300 304 306 304 302 300 297 295 292 288 287 288 289 290 290 290 290 290 290 289 288 288 288 288 287 283 278 274 272 273 274 272 270
252 257 267 268 246 218 200 191 185 181 180 182 186 190 196 208 227 244 257 265 270 277 286 291 293 294 297 301 305 305 304 305 306 308 310 310 310 311 311 310 308 304 301 299 299 298 298 298 299 300 301 301 302 305 306 303 299 297 296 294 291 289 288 288 288 287 287 288 288 289 289 289 290 290 290 290 289 286 282 278 272 267 265 266 270
260 265 262 238 213 201 193 187 184 184 183 188 194 201 213 229 243 255 264 270 276 285 292 294 296 299 303 307 309 308 307 308 309 312 311 310 312 312 311 311 308 304 301 299 299 299 298 298 300 301 302 303 304 303 301 299 296 296 295 293 290 288 287 287 286 284 283 283 285 286 288 288 289 289 289 289 287 284 283 281 277 270 266 266 269
249 249 231 206 193 189 186 184 186 189 193 200 208 219 230 242 256 266 272 276 283 291 295 297 300 304 308 312 313 311 311 311 313 314 311 310 313 314 312 311 307 303 301 299 299 300 299 299 301 302 303 305 304 301 297 295 294 294 294 293 289 288 287 287 286 284 282 283 284 285 285 285 285 285 285 285 285 283 281 278 276 274 273 271 270
231 222 212 198 187 184 184 186 190 196 204 213 223 234 243 255 270 275 277 281 288 294 298 300 304 309 312 315 315 314 314 314 315 315 312 311 313 314 311 309 305 302 300 298 298 300 300 300 302 303 304 305 304 300 296 293 292 292 293 293 290 289 289 288 285 284 283 284 285 284 283 283 281 281 282 282 282 282 280 277 276 275 274 274 273
220 216 209 198 189 185 185 189 196 203 214 226 237 247 257 268 275 276 277 285 292 296 300 304 309 312 315 317 316 316 316 316 316 316 312 310 313 313 310 306 303 300 297 296 298 300 300 300 302 304 305 305 303 299 297 294 292 291 292 293 291 290 290 287 285 284 283 284 284 282 281 279 279 280 282 283 284 283 282 280 279 279 277 276 276
215 211 205 199 195 190 187 190 199 209 223 237 246 254 265 272 277 278 283 291 296 299 303 307 312 315 318 320 318 317 318 317 317 316 312 310 312 310 306 304 302 298 295 295 296 298 299 299 300 302 302 302 300 298 297 297 294 291 290 290 289 288 287 285 284 282 282 281 281 281 282 283 285 287 288 288 287 285 283 281 280 279 277 275 273
205 201 197 195 192 190 189 192 201 214 230 241 247 257 271 278 282 286 291 296 299 301 305 310 314 317 320 321 319 318 320 319 318 316 312 311 311 308 304 302 300 297 295 294 295 297 298 298 298 298 297 296 297 297 297 298 298 295 292 289 286 283 282 281 280 278 277 278 278 280 283 285 286 287 287 285 282 280 279 279 278 277 276 273 271
206 199 194 190 187 188 191 197 207 219 232 241 250 267 282 287 289 292 295 296 299 303 307 312 317 320 321 322 320 318 319 318 317 316 314 312 311 307 301 298 297 296 295 294 295 296 297 296 294 293 291 293 298 299 299 299 299 296 292 289 285 282 279 277 276 275 274 275 275 275 276 275 276 279 280 279 278 277 277 276 275 275 276 275 274
205 196 191 189 189 192 198 205 214 221 231 244 261 281 291 293 294 295 294 296 300 305 309 313 319 321 321 322 319 317 317 317 317 317 315 313 312 308 302 298 297 297 295 294 294 294 294 294 293 292 292 295 298 298 299 300 299 296 293 291 289 288 285 280 276 276 275 274 272 271 269 267 268 270 272 273 273 272 272 272 272 273 275 274 275
196 192 191 193 195 199 206 214 221 226 237 254 272 289 295 295 294 292 292 296 301 306 310 314 319 321 321 320 318 317 317 317 317 317 315 313 312 308 301 298 299 298 293 291 294 296 296 296 295 294 296 297 298 299 300 301 301 299 299 299 298 296 294 290 287 286 285 282 277 273 269 266 265 266 268 270 272 271 271 270 270 272 272 272 272
190 189 193 198 203 208 212 218 226 235 248 265 280 293 296 292 288 288 289 294 302 307 310 314 318 319 318 318 317 317 318 318 318 317 316 314 313 309 300 295 295 297 294 293 294 296 299 300 299 299 299 298 298 301 303 303 303 303 303 304 303 302 300 299 299 300 300 299 295 289 284 280 278 276 275 276 276 275 272 268 267 269 269 269 270
189 190 194 202 209 214 218 223 232 245 260 276 291 300 296 286 281 282 285 291 301 306 309 313 316 316 316 316 315 316 318 318 317 316 315 313 313 314 313 307 299 296 298 300 301 301 301 301 301 302 303 303 301 303 305 305 306 306 308 308 307 306 305 305 305 306 305 302 298 293 290 289 286 283 281 281 279 277 272 266 264 265 267 269 270